Location: Auckland
(36.8670°S, 174.7670°E)
Time: 21:58:39
(UTC+12:00)

NOSS 2-1 (E) - Pass Details

Date: 25 April 2019
Orbit: 471 x 1733 km, 63.3° (Epoch: 21 May)

Event Time Altitude Azimuth Distance (km) Brightness Sun altitude
Rises 21:32:17 0° 213° (SSW) 4,738 8.6 -45.9°
Reaches altitude 10° 21:37:54 10° 188° (S) 3,487 7.6 -47.0°
Enters shadow 21:39:21 12° 179° (S) 3,256 7.3 -47.2°
